Location: Decatur Area Astronomy Club
(40.0275°N, 88.7810°W)
Time: 15:12:13
(UTC-05:00)

Amateur Radio Satellites - All Passes

Search period start: 26 May 2016 14:42
Search period end: 27 May 2016 14:42
Location: Decatur Area Astronomy Club, 40.0275°N, 88.7810°W

Satellite Date Start Highest point End Downlink Frequencies (MHz)
Time Altitude Azimuth
AO-7 26 May 14:43:44 14:51:16 41° 61° (ENE) 14:58:51 29.400- 29.500
DANDE 26 May 15:01:39 15:03:29 11° 307° (NW) 15:05:27 436.750
Oscar 19 26 May 15:13:51 15:15:10 11° 271° (W) 15:16:30 437.125/150
Gurwin Techsat 1B 26 May 15:22:45 15:26:49 22° 266° (W) 15:30:53 435.225
TISAT 1 26 May 15:27:09 15:29:11 13° 296° (WNW) 15:31:12 437.305
SWISSCUBE 26 May 15:28:38 15:33:25 71° 285° (WNW) 15:38:12 437.505
AO-85 26 May 15:32:30 15:37:11 76° 56° (NE) 15:41:25 145.980
ITUPSAT 1 26 May 15:34:03 15:38:51 71° 285° (WNW) 15:43:38 437.325
KKS-1 26 May 15:39:36 15:42:18 16° 92° (E) 15:45:00 437.445
MOZHAYETS 4 26 May 15:45:26 15:48:00 15° 91° (E) 15:50:34
ITAMSAT 1 26 May 15:48:46 15:53:15 30° 264° (W) 15:57:47 435.822/435.867
AIST 2 26 May 15:56:33 15:58:56 15° 317° (NW) 16:01:20 435.215
BEESAT 26 May 15:58:48 16:03:15 39° 290° (WNW) 16:07:40 436.000
HORYU 2 26 May 16:03:05 16:06:41 25° 68° (ENE) 16:10:18 437.375
YUBILEINY 26 May 16:04:18 16:12:28 48° 89° (E) 16:20:39 435.215
Cosmos 2491 26 May 16:04:38 16:13:24 80° 265° (W) 16:22:06 435.465 / 435.565
STARS 26 May 16:18:22 16:21:41 21° 95° (E) 16:25:00 437.465
NOAA 15 26 May 16:30:51 16:32:34 12° 58° (ENE) 16:34:17 137.62
AO-7 26 May 16:36:04 16:43:54 46° 259° (W) 16:51:49 29.400- 29.500
CUBESAT XI-V 26 May 17:07:51 17:09:46 12° 90° (E) 17:11:39 437.345
KKS-1 26 May 17:14:52 17:19:06 45° 288° (WNW) 17:23:18 437.445
CUTE-I 26 May 17:15:13 17:19:02 21° 63° (ENE) 17:22:51 437.470
RS-15 26 May 17:16:56 17:27:42 54° 111° (ESE) 17:39:02 29.354- 29.394
MOZHAYETS 4 26 May 17:20:58 17:25:28 53° 287° (WNW) 17:29:58
BRITE-PL 26 May 17:24:58 17:29:41 29° 67° (ENE) 17:34:29 437.365/2234.400
HORYU 2 26 May 17:39:18 17:43:07 29° 263° (W) 17:46:59 437.375
LilacSat-2 26 May 17:50:01 17:53:19 29° 71° (ENE) 17:56:38 437.200
Cosmos 2504 26 May 17:53:08 18:00:11 64° 93° (E) 18:07:38 435.465 / 435.565
STARS 26 May 17:54:11 17:58:05 33° 290° (WNW) 18:01:59 437.465
NOAA 18 26 May 17:55:06 18:00:27 59° 72° (ENE) 18:05:50 137.9125
GOMX 1 26 May 17:56:13 18:00:45 27° 67° (ENE) 18:05:13 467.674
YUBILEINY 26 May 18:01:35 18:09:24 36° 288° (WNW) 18:17:17 435.215
Cosmos 2491 26 May 18:04:39 18:08:42 14° 285° (WNW) 18:12:45 435.465 / 435.565
NOAA 15 26 May 18:06:12 18:11:30 86° 75° (ENE) 18:16:52 137.62
Cubesat XI-IV 26 May 18:06:44 18:11:57 59° 72° (ENE) 18:17:11 437.490
PCSat 26 May 18:07:36 18:11:27 19° 45° (NE) 18:15:17 145.827
CUBESAT XI-V 26 May 18:42:53 18:47:34 65° 285° (WNW) 18:52:13 437.345
DOVE 4 26 May 18:50:38 18:55:33 41° 71° (ENE) 19:00:18 437.250
AUBIESAT-1 26 May 18:52:45 18:55:41 19° 64° (ENE) 18:58:30 437.475
CUTE-I 26 May 18:53:31 18:58:40 51° 260° (W) 19:03:52 437.470
M-CUBED/EXP-1 PRIME 26 May 18:57:44 19:01:17 27° 66° (ENE) 19:04:37 437.505
O/OREOS (USA 219) 26 May 18:58:54 19:02:26 22° 58° (ENE) 19:05:56 437.305
BRITE-PL 26 May 19:02:39 19:07:54 41° 263° (W) 19:13:17 437.365/2234.400
HO-68 26 May 19:14:14 19:20:37 37° 64° (ENE) 19:27:02 435.675
LilacSat-2 26 May 19:25:01 19:27:39 18° 266° (W) 19:30:18 437.200
RS-15 26 May 19:29:23 19:40:19 49° 315° (NW) 19:51:55 29.354- 29.394
CINEMA 3 26 May 19:30:29 19:34:39 31° 70° (ENE) 19:38:40 145.822/145.860
STRAND 1 26 May 19:33:16 19:37:51 32° 97° (E) 19:42:24 437.568
GOMX 1 26 May 19:33:25 19:38:34 41° 263° (W) 19:43:42 467.674
BEESAT 3 26 May 19:37:33 19:39:37 14° 43° (NE) 19:41:39 437.485
NOAA 18 26 May 19:37:57 19:41:29 17° 267° (W) 19:45:02 137.9125
CANX-2 26 May 19:47:51 19:51:52 46° 73° (ENE) 19:55:55 2200.000
Cosmos 2504 26 May 19:48:45 19:54:13 23° 293° (WNW) 19:59:56 435.465 / 435.565
Cubesat XI-IV 26 May 19:49:05 19:52:24 17° 268° (W) 19:55:43 437.490
PCSat 26 May 19:49:59 19:55:24 71° 244° (WSW) 20:00:46 145.827
NOAA 15 26 May 19:50:40 19:51:55 11° 271° (W) 19:53:10 137.62
SEEDS 26 May 19:53:09 19:56:52 33° 71° (ENE) 20:00:38 437.485
CUTE 1.7 + AOD 2 26 May 20:15:07 20:19:18 84° 80° (E) 20:23:33 437.475
Oscar 11 26 May 20:16:37 20:19:03 15° 65° (ENE) 20:21:29 145.826/435.025
AUBIESAT-1 26 May 20:26:10 20:30:00 34° 256° (WSW) 20:33:36 437.475
CUBEBUG 2 26 May 20:27:32 20:31:35 37° 72° (ENE) 20:35:32 437.445
ZACube-1 26 May 20:28:18 20:31:04 17° 67° (ENE) 20:33:49 437.345
DOVE 4 26 May 20:29:09 20:33:18 24° 266° (W) 20:37:22 437.250
M-CUBED/EXP-1 PRIME 26 May 20:32:15 20:35:46 25° 258° (WSW) 20:39:05 437.505
BEESAT 2 26 May 20:37:09 20:40:39 28° 50° (NE) 20:44:08 435.950
O/OREOS (USA 219) 26 May 20:37:51 20:41:54 34° 255° (WSW) 20:45:57 437.305
COMPASS 1 26 May 20:40:49 20:44:57 85° 78° (ENE) 20:49:08 437.405
AIST 1 26 May 20:42:50 20:45:58 19° 87° (E) 20:49:06
AAUSAT CUBESAT 2 26 May 20:44:28 20:48:33 74° 77° (ENE) 20:52:43 437.432
PRISM 26 May 20:50:53 20:54:41 33° 98° (E) 20:58:26 437.425
UWE-3 26 May 20:58:11 21:02:25 56° 74° (ENE) 21:06:34 435.000/436.395/437.385
HO-68 26 May 21:01:30 21:08:12 42° 261° (W) 21:14:56 435.675
FUNcube-1 26 May 21:05:35 21:09:33 41° 73° (ENE) 21:13:29 145.935
CINEMA 3 26 May 21:07:45 21:11:45 26° 264° (W) 21:15:37 145.822/145.860
STRAND 1 26 May 21:12:29 21:16:55 30° 293° (WNW) 21:21:22 437.568
BEESAT 3 26 May 21:13:48 21:17:43 66° 241° (WSW) 21:21:36 437.485
DELFI C3 26 May 21:23:44 21:27:20 35° 72° (ENE) 21:30:59 145.870
CANX-2 26 May 21:25:46 21:27:58 14° 269° (W) 21:30:11 2200.000
SEEDS 26 May 21:29:39 21:32:39 19° 267° (W) 21:35:40 437.485
RS-15 26 May 21:48:15 21:56:54 22° 347° (NNW) 22:05:49 29.354- 29.394
Oscar 11 26 May 21:50:37 21:54:46 48° 261° (W) 21:58:57 145.826/435.025
GONETS M04 26 May 21:53:54 22:02:24 56° 90° (E) 22:10:52
PHONESAT 2.4 26 May 21:58:43 22:00:48 16° 149° (SSE) 22:02:52 2401.200-2431.200
ZACube-1 26 May 22:03:05 22:07:05 39° 262° (W) 22:11:01 437.345
ISS 26 May 22:03:58 22:07:13 80° 141° (SE) 22:10:29 145.825
CUBEBUG 2 26 May 22:05:14 22:08:18 18° 266° (W) 22:11:20 437.445
DANDE 26 May 22:11:09 22:17:06 21° 62° (ENE) 22:22:45 436.750
ANTELSAT 26 May 22:13:48 22:16:04 14° 92° (E) 22:18:21 437.575/2403.000
BEESAT 2 26 May 22:15:07 22:18:24 25° 247° (WSW) 22:21:39 435.950
AIST 1 26 May 22:19:18 22:23:17 33° 283° (WNW) 22:27:19
HUMSAT D 26 May 22:19:46 22:23:50 73° 75° (ENE) 22:27:54 437.325/437.525
CUSAT 1 26 May 22:26:25 22:33:45 42° 71° (ENE) 22:39:58 437.405
PRISM 26 May 22:26:42 22:29:45 20° 294° (WNW) 22:32:48 437.425
Cosmos 2499 26 May 22:30:45 22:37:41 54° 90° (E) 22:45:06 435.465 / 435.565
UWE-3 26 May 22:37:35 22:39:11 12° 269° (W) 22:40:47 435.000/436.395/437.385
AIST 2 26 May 22:38:01 22:41:50 34° 52° (NE) 22:45:38 435.215
FUNcube-1 26 May 22:43:26 22:45:58 15° 267° (W) 22:48:30 145.935
AISAT 26 May 22:47:02 22:50:21 21° 66° (ENE) 22:53:40 437.250
DELFI C3 26 May 22:59:51 23:02:19 16° 267° (W) 23:04:49 145.870
UKube-1 26 May 23:00:37 23:03:36 19° 66° (ENE) 23:06:36 .
UNISAT 6 26 May 23:07:32 23:11:46 57° 101° (E) 23:16:04 437.425
TIGRISAT 26 May 23:15:24 23:19:40 66° 101° (ESE) 23:23:59 435.000
ESTCUBE 1 26 May 23:19:59 23:24:26 64° 74° (ENE) 23:28:56 437.505/2401.250
NANOSAT C BR1 26 May 23:24:45 23:26:59 14° 92° (E) 23:29:12 145.865
PHONESAT 2.4 26 May 23:34:05 23:37:11 62° 164° (SSE) 23:40:18 2401.200-2431.200
CUBEBUG 1 26 May 23:41:34 23:46:00 76° 76° (ENE) 23:50:26 437.445
ISS 26 May 23:41:35 23:43:59 19° 339° (NNW) 23:46:24 145.825
DX 1 26 May 23:43:57 23:48:19 68° 74° (ENE) 23:52:41 434.975-435.025
VELOX 1 26 May 23:46:01 23:50:29 84° 76° (ENE) 23:54:58 145.980
ANTELSAT 26 May 23:48:54 23:53:02 48° 287° (WNW) 23:57:14 437.575/2403.000
50 SAT 26 May 23:50:48 23:54:24 69° 258° (WSW) 23:58:03 437.505
GONETS M04 26 May 23:52:00 23:59:36 32° 290° (WNW) 00:07:12
DANDE 26 May 23:52:36 00:01:07 89° 82° (E) 00:08:47 436.750
DUCHIFAT 1 27 May 00:02:28 00:06:19 35° 98° (E) 00:10:10 145.980
RS-15 27 May 00:05:41 00:15:23 26° 23° (NNE) 00:25:09 29.354- 29.394
CUSAT 1 27 May 00:08:47 00:15:44 38° 273° (W) 00:21:39 437.405
SPROUT 27 May 00:12:56 00:17:10 63° 75° (ENE) 00:21:26 437.525
AIST 2 27 May 00:16:56 00:20:07 21° 248° (WSW) 00:23:16 435.215
SO-50 27 May 00:19:38 00:24:06 36° 114° (ESE) 00:28:35 436.795
AISAT 27 May 00:22:26 00:26:34 37° 262° (W) 00:30:44 437.250
BUGSAT 1 27 May 00:24:43 00:28:14 28° 97° (E) 00:31:43 437.445
Cosmos 2499 27 May 00:25:13 00:31:13 27° 291° (WNW) 00:37:35 435.465 / 435.565
UKube-1 27 May 00:35:18 00:39:21 39° 261° (W) 00:43:26 .
POPSAT HIP 1 27 May 00:39:21 00:43:33 75° 284° (WNW) 00:47:43 437.405
QB50P1 27 May 00:39:50 00:44:02 72° 284° (WNW) 00:48:12 145.935-145.965
TISAT 1 27 May 00:40:50 00:44:40 35° 71° (ENE) 00:48:32 437.305
QB50P2 27 May 00:41:50 00:46:00 65° 286° (WNW) 00:50:10 145.880/145.840
POLYITAN 1 27 May 00:44:18 00:48:27 63° 285° (WNW) 00:52:35 437.675
UNISAT 6 27 May 00:46:04 00:48:01 13° 296° (WNW) 00:49:59 437.425
TIGRISAT 27 May 00:54:30 00:55:49 11° 297° (WNW) 00:57:08 435.000
NANOSAT C BR1 27 May 00:58:57 01:02:57 45° 287° (WNW) 01:06:56 145.865
SWISSCUBE 27 May 00:59:26 01:01:47 14° 62° (ENE) 01:04:07 437.505
ESTCUBE 1 27 May 01:00:08 01:01:40 11° 270° (W) 01:03:12 437.505/2401.250
ITUPSAT 1 27 May 01:05:04 01:07:27 14° 62° (ENE) 01:09:50 437.325
PHONESAT 2.4 27 May 01:10:47 01:13:56 79° 360° (N) 01:17:04 2401.200-2431.200
ISS 27 May 01:20:30 01:21:27 11° 359° (N) 01:22:23 145.825
DX 1 27 May 01:24:20 01:24:56 10° 270° (W) 01:25:31 434.975-435.025
JAS-2 27 May 01:27:01 01:34:19 53° 98° (E) 01:40:49 435.910
BEESAT 27 May 01:27:37 01:31:21 23° 66° (ENE) 01:35:06 436.000
DANDE 27 May 01:37:23 01:42:46 19° 281° (W) 01:47:52 436.750
DUCHIFAT 1 27 May 01:38:53 01:41:46 18° 294° (WNW) 01:44:38 145.980
Oscar 19 27 May 01:42:44 01:47:15 30° 96° (E) 01:51:44 437.125/150
SPROUT 27 May 01:52:40 01:53:32 10° 270° (W) 01:54:23 437.525
Gurwin Techsat 1B 27 May 01:59:23 02:03:02 18° 92° (E) 02:06:39 435.225
SO-50 27 May 02:00:18 02:04:37 30° 312° (NW) 02:08:57 436.795
BUGSAT 1 27 May 02:00:24 02:03:27 21° 292° (WNW) 02:06:28 437.445
YUBILEINY 27 May 02:15:41 02:22:13 23° 66° (ENE) 02:28:43 435.215
TISAT 1 27 May 02:17:27 02:20:25 18° 266° (W) 02:23:24 437.305
RS-15 27 May 02:18:42 02:30:58 65° 52° (NE) 02:43:10 29.354- 29.394
ITAMSAT 1 27 May 02:24:56 02:26:27 11° 89° (E) 02:27:58 435.822/435.867
SWISSCUBE 27 May 02:34:16 02:38:59 67° 258° (WSW) 02:43:45 437.505
KKS-1 27 May 02:37:36 02:40:06 15° 64° (ENE) 02:42:35 437.445
ITUPSAT 1 27 May 02:39:59 02:44:42 66° 258° (WSW) 02:49:28 437.325
MOZHAYETS 4 27 May 02:47:28 02:49:43 14° 63° (ENE) 02:51:58
PHONESAT 2.4 27 May 02:47:35 02:50:39 54° 198° (SSW) 02:53:43 2401.200-2431.200
AO-7 27 May 02:50:51 02:51:43 10° 86° (E) 02:52:37 29.400- 29.500
ISS 27 May 02:56:35 02:58:55 18° 20° (NNE) 03:01:15 145.825
BEESAT 27 May 03:04:34 03:08:56 36° 262° (W) 03:13:19 436.000
Cosmos 2491 27 May 03:10:27 03:17:08 25° 81° (E) 03:23:47 435.465 / 435.565
JAS-2 27 May 03:12:33 03:18:52 30° 298° (WNW) 03:24:40 435.910
STARS 27 May 03:14:47 03:17:50 19° 65° (ENE) 03:20:53 437.465
Oscar 19 27 May 03:22:00 03:26:31 31° 292° (WNW) 03:31:00 437.125/150
Gurwin Techsat 1B 27 May 03:38:07 03:43:17 53° 288° (WNW) 03:48:26 435.225
Cosmos 2504 27 May 03:45:47 03:52:22 24° 68° (ENE) 03:59:07 435.465 / 435.565
ITAMSAT 1 27 May 04:01:16 04:06:31 82° 285° (WNW) 04:11:44 435.822/435.867
YUBILEINY 27 May 04:11:11 04:19:56 77° 266° (W) 04:28:41 435.215
CUBESAT XI-V 27 May 04:11:12 04:13:01 12° 62° (ENE) 04:14:51 437.345
KKS-1 27 May 04:11:49 04:16:13 54° 260° (W) 04:20:36 437.445
MOZHAYETS 4 27 May 04:21:51 04:26:21 61° 260° (W) 04:30:53
PHONESAT 2.4 27 May 04:25:21 04:26:59 13° 212° (SSW) 04:28:35 2401.200-2431.200
RS-15 27 May 04:31:56 04:42:51 40° 254° (WSW) 04:53:42 29.354- 29.394
ISS 27 May 04:32:28 04:35:45 89° 201° (SSW) 04:39:00 145.825
AO-7 27 May 04:37:37 04:45:57 65° 104° (ESE) 04:54:15 29.400- 29.500
STARS 27 May 04:49:44 04:53:53 40° 261° (W) 04:58:04 437.465
Cosmos 2491 27 May 05:04:20 05:13:08 69° 280° (W) 05:21:57 435.465 / 435.565
HORYU 2 27 May 05:30:02 05:34:23 53° 101° (E) 05:38:43 437.375
Cosmos 2504 27 May 05:38:02 05:46:25 73° 267° (W) 05:55:13 435.465 / 435.565
ITAMSAT 1 27 May 05:44:01 05:45:07 11° 302° (WNW) 05:46:13 435.822/435.867
CUBESAT XI-V 27 May 05:45:06 05:49:46 73° 259° (W) 05:54:28 437.345
AO-85 27 May 05:45:13 05:50:05 34° 113° (ESE) 05:54:54 145.980
YUBILEINY 27 May 06:11:26 06:15:09 13° 285° (WNW) 06:18:53 435.215
NOAA 18 27 May 06:18:16 06:22:48 26° 96° (E) 06:27:17 137.9125
NOAA 15 27 May 06:22:22 06:27:10 34° 97° (E) 06:31:54 137.62
Cubesat XI-IV 27 May 06:25:09 06:29:30 25° 95° (E) 06:33:50 437.490
AO-7 27 May 06:31:14 06:38:07 30° 303° (WNW) 06:45:01 29.400- 29.500
STRAND 1 27 May 06:48:26 06:53:12 42° 70° (ENE) 06:58:01 437.568
LilacSat-2 27 May 06:57:39 07:01:19 47° 99° (E) 07:04:58 437.200
HORYU 2 27 May 07:08:02 07:10:29 15° 296° (WNW) 07:12:58 437.375
Cosmos 2491 27 May 07:08:05 07:11:49 13° 302° (WNW) 07:15:33 435.465 / 435.565
BRITE-PL 27 May 07:08:33 07:13:44 78° 103° (ESE) 07:18:26 437.365/2234.400
CUTE-I 27 May 07:10:56 07:16:17 67° 102° (ESE) 07:21:37 437.470
AO-85 27 May 07:25:30 07:30:33 37° 310° (NW) 07:35:29 145.980
Cosmos 2504 27 May 07:34:58 07:38:23 13° 284° (WNW) 07:41:51 435.465 / 435.565
GOMX 1 27 May 07:36:21 07:41:03 69° 101° (E) 07:45:24 467.674
PRISM 27 May 07:40:01 07:43:17 23° 68° (ENE) 07:46:34 437.425
NOAA 18 27 May 07:58:27 08:03:32 41° 291° (WNW) 08:08:38 137.9125
CUTE 1.7 + AOD 2 27 May 08:01:56 08:04:29 15° 92° (E) 08:07:01 437.475
NOAA 15 27 May 08:02:16 08:06:49 30° 293° (WNW) 08:11:21 137.62
Cubesat XI-IV 27 May 08:04:41 08:09:40 41° 291° (WNW) 08:14:40 437.490
GONETS M04 27 May 08:05:32 08:12:33 26° 67° (ENE) 08:19:31
AUBIESAT-1 27 May 08:07:35 08:08:16 10° 98° (E) 08:08:56 437.475
M-CUBED/EXP-1 PRIME 27 May 08:12:31 08:14:35 16° 100° (E) 08:16:38 437.505
Cosmos 2499 27 May 08:22:20 08:28:27 21° 65° (ENE) 08:34:40 435.465 / 435.565
COMPASS 1 27 May 08:25:45 08:28:03 14° 92° (E) 08:30:21 437.405
AIST 1 27 May 08:26:32 08:30:48 52° 80° (E) 08:35:00
DOVE 4 27 May 08:28:02 08:32:26 71° 284° (WNW) 08:36:36 437.250
STRAND 1 27 May 08:28:40 08:32:32 22° 266° (W) 08:36:26 437.568
AAUSAT CUBESAT 2 27 May 08:29:19 08:31:02 12° 91° (E) 08:32:45 437.432
HO-68 27 May 08:29:26 08:36:05 40° 98° (E) 08:42:44 435.675
LilacSat-2 27 May 08:33:48 08:35:12 12° 295° (WNW) 08:36:36 437.200
BRITE-PL 27 May 08:49:13 08:51:22 13° 300° (WNW) 08:53:27 437.365/2234.400
PCSat 27 May 08:50:02 08:53:15 16° 104° (ESE) 08:56:29 145.827
UWE-3 27 May 08:50:42 08:51:49 11° 91° (E) 08:52:55 435.000/436.395/437.385
SO-50 27 May 08:51:47 08:55:53 28° 48° (NE) 08:59:51 436.795
CUTE-I 27 May 08:52:30 08:55:45 17° 299° (WNW) 08:59:00 437.470
CINEMA 3 27 May 09:02:16 09:06:27 79° 103° (ESE) 09:10:35 145.822/145.860
CANX-2 27 May 09:08:54 09:13:12 79° 282° (WNW) 09:17:28 2200.000
O/OREOS (USA 219) 27 May 09:10:24 09:14:16 28° 103° (ESE) 09:18:07 437.305
SEEDS 27 May 09:12:36 09:16:52 72° 102° (ESE) 09:21:06 437.485
ANTELSAT 27 May 09:13:04 09:14:52 12° 64° (ENE) 09:16:39 437.575/2403.000
PRISM 27 May 09:14:51 09:18:27 28° 263° (W) 09:22:04 437.425
GOMX 1 27 May 09:16:37 09:18:26 12° 299° (WNW) 09:20:12 467.674
CUTE 1.7 + AOD 2 27 May 09:36:27 09:40:30 43° 287° (WNW) 09:44:34 437.475
Oscar 11 27 May 09:38:30 09:42:21 30° 96° (E) 09:46:12 145.826/435.025
AUBIESAT-1 27 May 09:39:54 09:42:59 36° 292° (WNW) 09:46:02 437.475
M-CUBED/EXP-1 PRIME 27 May 09:46:32 09:49:12 23° 295° (WNW) 09:51:52 437.505
ZACube-1 27 May 09:51:37 09:55:33 37° 98° (E) 09:59:29 437.345
CUBEBUG 2 27 May 09:54:54 09:59:05 87° 279° (W) 10:03:18 437.445
COMPASS 1 27 May 09:59:48 10:03:51 45° 287° (WNW) 10:07:51 437.405
GONETS M04 27 May 10:01:27 10:10:02 66° 268° (W) 10:18:35
AAUSAT CUBESAT 2 27 May 10:02:44 10:06:50 52° 286° (WNW) 10:10:54 437.432
HUMSAT D 27 May 10:05:37 10:07:19 12° 91° (E) 10:09:00 437.325/437.525
UNISAT 6 27 May 10:05:40 10:09:51 46° 73° (ENE) 10:13:58 437.425
AIST 1 27 May 10:06:12 10:07:51 12° 276° (W) 10:09:30
TIGRISAT 27 May 10:13:18 10:17:33 53° 74° (ENE) 10:21:44 435.000
Cosmos 2499 27 May 10:13:54 10:22:33 85° 265° (W) 10:31:27 435.465 / 435.565
HO-68 27 May 10:17:13 10:23:44 39° 296° (WNW) 10:30:15 435.675
NANOSAT C BR1 27 May 10:18:00 10:18:57 11° 62° (ENE) 10:19:53 145.865
UWE-3 27 May 10:24:30 10:28:37 58° 286° (WNW) 10:32:46 435.000/436.395/437.385
FUNcube-1 27 May 10:29:46 10:33:58 82° 282° (WNW) 10:38:13 145.935
PCSat 27 May 10:30:39 10:36:02 66° 301° (WNW) 10:41:28 145.827
SO-50 27 May 10:32:10 10:36:23 34° 246° (WSW) 10:40:28 436.795
DELFI C3 27 May 10:36:18 10:40:19 66° 101° (E) 10:44:20 145.870
ANTELSAT 27 May 10:46:45 10:51:05 60° 259° (W) 10:55:21 437.575/2403.000
O/OREOS (USA 219) 27 May 10:49:39 10:53:35 28° 300° (WNW) 10:57:31 437.305
SEEDS 27 May 10:51:15 10:51:58 10° 297° (WNW) 10:52:40 437.485
DUCHIFAT 1 27 May 10:53:57 10:57:25 25° 69° (ENE) 11:00:52 145.980
BEESAT 3 27 May 11:04:24 11:07:31 23° 113° (ESE) 11:10:39 437.485
BUGSAT 1 27 May 11:14:10 11:17:15 20° 67° (ENE) 11:20:19 437.445
ESTCUBE 1 27 May 11:14:40 11:17:08 14° 91° (E) 11:19:33 437.505/2401.250
Oscar 11 27 May 11:14:54 11:18:19 23° 292° (WNW) 11:21:44 145.826/435.025
DANDE 27 May 11:20:40 11:23:34 14° 76° (ENE) 11:26:48 436.750
50 SAT 27 May 11:23:27 11:24:00 10° 91° (E) 11:24:33 437.505
CUSAT 1 27 May 11:26:37 11:32:22 40° 88° (E) 11:39:18 437.405
ZACube-1 27 May 11:28:43 11:31:34 18° 293° (WNW) 11:34:25 437.345
POPSAT HIP 1 27 May 11:30:46 11:34:59 73° 76° (ENE) 11:39:13 437.405
QB50P1 27 May 11:31:12 11:35:26 75° 76° (ENE) 11:39:40 145.935-145.965
CUBEBUG 1 27 May 11:32:23 11:34:48 15° 92° (E) 11:37:13 437.445
QB50P2 27 May 11:33:21 11:37:36 84° 77° (ENE) 11:41:52 145.880/145.840
DX 1 27 May 11:34:55 11:36:36 12° 91° (E) 11:38:17 434.975-435.025
POLYITAN 1 27 May 11:35:49 11:40:04 86° 76° (ENE) 11:44:19 437.675
JAS-2 27 May 11:37:57 11:43:49 26° 60° (ENE) 11:49:56 435.910
VELOX 1 27 May 11:38:03 11:40:51 16° 93° (E) 11:43:38 145.980
HUMSAT D 27 May 11:39:10 11:43:13 52° 286° (WNW) 11:47:17 437.325/437.525
UNISAT 6 27 May 11:44:18 11:46:47 15° 268° (W) 11:49:15 437.425
NANOSAT C BR1 27 May 11:49:53 11:54:06 69° 259° (WSW) 11:58:19 145.865
TIGRISAT 27 May 11:52:32 11:54:31 13° 268° (W) 11:56:29 435.000
SPROUT 27 May 12:02:00 12:03:14 11° 90° (E) 12:04:28 437.525
GONETS M04 27 May 12:03:43 12:05:01 10° 287° (WNW) 12:06:18
BEESAT 2 27 May 12:05:33 12:09:28 63° 119° (ESE) 12:13:26 435.950
Cosmos 2499 27 May 12:09:30 12:14:25 17° 282° (WNW) 12:19:26 435.465 / 435.565
AISAT 27 May 12:12:59 12:17:11 42° 99° (E) 12:21:21 437.250
DELFI C3 27 May 12:14:15 12:14:37 10° 297° (WNW) 12:14:58 145.870
PCSat 27 May 12:18:21 12:20:30 12° 321° (NW) 12:22:40 145.827
UKube-1 27 May 12:22:56 12:26:52 34° 98° (E) 12:30:47 .
DUCHIFAT 1 27 May 12:29:28 12:33:01 26° 264° (W) 12:36:34 145.980
BEESAT 3 27 May 12:41:34 12:45:03 30° 309° (NW) 12:48:35 437.485
BUGSAT 1 27 May 12:48:36 12:52:25 33° 263° (W) 12:56:13 437.445
ESTCUBE 1 27 May 12:49:47 12:54:14 53° 287° (WNW) 12:58:38 437.505/2401.250
50 SAT 27 May 12:54:23 12:57:59 48° 286° (WNW) 13:01:35 437.505
Oscar 19 27 May 12:58:43 13:03:35 42° 70° (ENE) 13:08:28 437.125/150
DANDE 27 May 12:59:38 13:04:57 80° 280° (W) 13:12:04 436.750
CUBEBUG 1 27 May 13:07:08 13:11:21 47° 287° (WNW) 13:15:31 437.445
CUSAT 1 27 May 13:08:39 13:14:29 37° 291° (WNW) 13:21:29 437.405
DX 1 27 May 13:08:51 13:13:09 57° 287° (WNW) 13:17:23 434.975-435.025
VELOX 1 27 May 13:13:19 13:17:31 43° 288° (WNW) 13:21:41 145.980
Gurwin Techsat 1B 27 May 13:19:36 13:24:04 28° 67° (ENE) 13:28:33 435.225
JAS-2 27 May 13:20:48 13:28:02 70° 259° (WSW) 13:35:53 435.910
Cosmos 2491 27 May 13:23:34 13:25:15 11° 55° (NE) 13:26:57 435.465 / 435.565
SPROUT 27 May 13:35:22 13:39:33 59° 286° (WNW) 13:43:43 437.525
ITAMSAT 1 27 May 13:41:24 13:44:49 18° 62° (ENE) 13:48:14 435.822/435.867
BEESAT 2 27 May 13:45:32 13:47:43 14° 317° (NW) 13:49:55 435.950
AO-7 27 May 13:47:06 13:52:21 19° 50° (NE) 13:57:36 29.400- 29.500
AISAT 27 May 13:50:21 13:53:20 18° 295° (WNW) 13:56:18 437.250
UKube-1 27 May 13:59:28 14:02:41 21° 294° (WNW) 14:05:54 .
TISAT 1 27 May 14:00:27 14:04:37 70° 101° (ESE) 14:08:46 437.305
AIST 2 27 May 14:12:38 14:16:44 90° 242° (WSW) 14:20:54 435.215
AO-85 27 May 14:18:15 14:22:03 23° 45° (NE) 14:25:36 145.980
